This is the latest recevied weather packets stored in our database for station/object NEWPRT. If no packets are shown the sender has not sent any weather packets the latest 10 day(s).
| Time | Temp. | Humidity | Pressure | Rain* | Wind** | Luminosity | Snow |
|---|---|---|---|---|---|---|---|
| 1778188012 | - | 48% | 1020.9 hPa | 0 mm | - | - | - |
| 1778187688 | - | 47% | 1020.5 hPa | 0 mm | - | - | - |
| 1778187365 | - | 47% | 1020.6 hPa | 0 mm | - | - | - |
| 1778187043 | - | 45% | 1020.5 hPa | 0 mm | - | - | - |
| 1778186720 | - | 46% | 1020.4 hPa | 0 mm | - | - | - |
| 1778186396 | - | 47% | 1020.5 hPa | 0 mm | - | - | - |
| 1778186073 | - | 47% | 1020.5 hPa | 0 mm | - | - | - |
| 1778185750 | - | 46% | 1020.6 hPa | 0 mm | - | - | - |
| 1778185430 | - | 44% | 1020.8 hPa | 0 mm | - | - | - |
| 1778185104 | - | 46% | 1020.5 hPa | 0 mm | - | - | - |
| 1778184781 | - | 47% | 1020.6 hPa | 0 mm | - | - | - |
| 1778184459 | - | 44% | 1020.8 hPa | 0 mm | - | - | - |
| 1778184135 | - | 46% | 1020.8 hPa | 0 mm | - | - | - |
| 1778183812 | - | 46% | 1020.8 hPa | 0 mm | - | - | - |
| 1778183489 | - | 47% | 1020.9 hPa | 0 mm | - | - | - |
| 1778183166 | - | 46% | 1021.1 hPa | 0 mm | - | - | - |
| 1778182843 | - | 47% | 1021 hPa | 0 mm | - | - | - |
| 1778182521 | - | 45% | 1021.1 hPa | 0 mm | - | - | - |
| 1778182197 | - | 48% | 1021.1 hPa | 0 mm | - | - | - |
| 1778181874 | - | 47% | 1021.1 hPa | 0 mm | - | - | - |
| 1778181551 | - | 47% | 1021.2 hPa | 0 mm | - | - | - |
| 1778181228 | - | 45% | 1021.2 hPa | 0 mm | - | - | - |
| 1778180905 | - | 45% | 1021.1 hPa | 0 mm | - | - | - |
| 1778180582 | - | 48% | 1021.1 hPa | 0 mm | - | - | - |
| 1778180259 | - | 48% | 1021.3 hPa | 0 mm | - | - | - |
* Rain latest hour (hover to see other rain measurements)
** Current wind speed in m/s (hover to see current wind gust speed)